• In Hungary
  • List of Countries
  • For 7 days
  • Water Temperature
  • Satellite Maps
  • Weather Map
  • News
  • Weather Widgets
  • user-avatar
    Login

    Hourly Weather Wielgoszowo

    Today, 20 July, Friday

    Time Temperature Precipitation Wind Pressure Humidity
    00:00 +17°C° 0.2 mm 2 mps 720 mmHg 97%
    01:00 +17°C° 0.2 mm 2 mps 720 mmHg 97%
    02:00 +17°C° 0.4 mm 2 mps 720 mmHg 97%
    03:00 +17°C° 0.4 mm 2 mps 720 mmHg 97%
    04:00 +17°C° 0.4 mm 2 mps 720 mmHg 97%
    05:00 +17°C° 0.4 mm 2 mps 720 mmHg 96%
    06:00 +17°C° 0.4 mm 2 mps 720 mmHg 96%
    07:00 +17°C° 0.4 mm 2 mps 720 mmHg 95%
    08:00 +18°C° 0 mm 2 mps 721 mmHg 92%
    09:00 +18°C° 0 mm 2 mps 721 mmHg 88%
    10:00 +19°C° 0 mm 2 mps 721 mmHg 85%
    11:00 +20°C° 0 mm 3 mps 721 mmHg 78%
    12:00 +22°C° 0 mm 3 mps 721 mmHg 71%
    13:00 +24°C° 0 mm 3 mps 721 mmHg 64%
    14:00 +24°C° 0 mm 3 mps 721 mmHg 63%
    15:00 +25°C° 0 mm 3 mps 720 mmHg 61%
    16:00 +25°C° 0 mm 3 mps 720 mmHg 59%
    17:00 +24°C° 0.1 mm 3 mps 720 mmHg 65%
    18:00 +21°C° 0.1 mm 2 mps 720 mmHg 71%
    19:00 +20°C° 0.1 mm 2 mps 720 mmHg 77%
    20:00 +20°C° 0 mm 1 mps 720 mmHg 80%
    21:00 +19°C° 0 mm 1 mps 720 mmHg 82%
    22:00 +16°C° 0 mm 1 mps 720 mmHg 84%
    23:00 +16°C° 0 mm 1 mps 720 mmHg 85%

    Tomorrow, 21 July, Saturday

    Time Temperature Precipitation Wind Pressure Humidity
    00:00 +15°C° 0 mm 1 mps 720 mmHg 86%
    01:00 +15°C° 0 mm 1 mps 720 mmHg 87%
    02:00 +14°C° 0 mm 1 mps 720 mmHg 87%
    03:00 +14°C° 0 mm 1 mps 720 mmHg 88%
    04:00 +14°C° 0 mm 1 mps 720 mmHg 88%
    05:00 +15°C° 0 mm 1 mps 720 mmHg 83%
    06:00 +18°C° 0 mm 1 mps 720 mmHg 78%
    07:00 +18°C° 0 mm 0 mps 720 mmHg 72%
    08:00 +22°C° 0 mm 1 mps 721 mmHg 65%
    09:00 +23°C° 0 mm 1 mps 721 mmHg 57%
    10:00 +25°C° 0 mm 1 mps 721 mmHg 50%
    11:00 +26°C° 0 mm 1 mps 721 mmHg 47%
    12:00 +26°C° 0 mm 1 mps 720 mmHg 45%
    13:00 +27°C° 0 mm 1 mps 720 mmHg 43%
    14:00 +27°C° 0 mm 1 mps 720 mmHg 44%
    15:00 +27°C° 0 mm 2 mps 720 mmHg 44%
    16:00 +27°C° 0 mm 2 mps 720 mmHg 45%
    17:00 +25°C° 0 mm 2 mps 720 mmHg 53%
    18:00 +23°C° 0 mm 1 mps 719 mmHg 60%
    19:00 +22°C° 0 mm 1 mps 719 mmHg 67%
    20:00 +21°C° 0 mm 1 mps 719 mmHg 70%
    21:00 +20°C° 0 mm 1 mps 719 mmHg 73%
    22:00 +18°C° 0 mm 1 mps 719 mmHg 75%
    23:00 +18°C° 0 mm 1 mps 719 mmHg 78%

    Day after tomorrow, 22 July, Sunday

    Time Temperature Precipitation Wind Pressure Humidity
    00:00 +16°C° 0 mm 1 mps 719 mmHg 80%
    01:00 +16°C° 0 mm 1 mps 719 mmHg 82%
    02:00 +15°C° 0 mm 1 mps 719 mmHg 83%
    03:00 +15°C° 0 mm 1 mps 719 mmHg 84%
    04:00 +15°C° 0 mm 1 mps 718 mmHg 85%
    05:00 +18°C° 0 mm 1 mps 719 mmHg 80%
    06:00 +19°C° 0 mm 1 mps 719 mmHg 74%
    07:00 +21°C° 0 mm 1 mps 719 mmHg 69%
    08:00 +23°C° 0 mm 1 mps 719 mmHg 64%
    09:00 +24°C° 0 mm 2 mps 719 mmHg 59%
    10:00 +25°C° 0 mm 2 mps 719 mmHg 55%
    11:00 +26°C° 0.1 mm 2 mps 719 mmHg 54%
    12:00 +26°C° 0.1 mm 2 mps 719 mmHg 53%
    13:00 +26°C° 0.1 mm 3 mps 718 mmHg 53%
    14:00 +26°C° 0.2 mm 3 mps 718 mmHg 54%
    15:00 +26°C° 0.2 mm 3 mps 718 mmHg 55%
    16:00 +26°C° 0.2 mm 3 mps 718 mmHg 55%
    17:00 +25°C° 0.1 mm 2 mps 718 mmHg 60%
    18:00 +23°C° 0.1 mm 2 mps 718 mmHg 65%
    19:00 +21°C° 0.1 mm 2 mps 718 mmHg 70%
    20:00 +21°C° 0 mm 1 mps 718 mmHg 73%
    21:00 +20°C° 0 mm 1 mps 718 mmHg 75%
    22:00 +19°C° 0 mm 1 mps 718 mmHg 77%
    23:00 +19°C° 0 mm 1 mps 717 mmHg 79%

    23 July, Monday

    Time Temperature Precipitation Wind Pressure Humidity
    00:00 +18°C° 0 mm 1 mps 717 mmHg 80%
    01:00 +18°C° 0 mm 1 mps 717 mmHg 81%
    02:00 +16°C° 0 mm 1 mps 717 mmHg 83%
    03:00 +16°C° 0 mm 1 mps 717 mmHg 84%
    04:00 +16°C° 0 mm 1 mps 717 mmHg 85%
    05:00 +18°C° 0.1 mm 1 mps 718 mmHg 83%
    06:00 +19°C° 0.1 mm 1 mps 718 mmHg 81%
    07:00 +19°C° 0.1 mm 2 mps 718 mmHg 79%
    08:00 +21°C° 0.1 mm 2 mps 718 mmHg 74%
    09:00 +23°C° 0.1 mm 2 mps 718 mmHg 70%
    10:00 +24°C° 0.1 mm 3 mps 719 mmHg 65%
    11:00 +25°C° 0.1 mm 3 mps 719 mmHg 63%
    12:00 +25°C° 0.1 mm 3 mps 719 mmHg 60%
    13:00 +26°C° 0.1 mm 3 mps 718 mmHg 58%
    14:00 +25°C° 0.5 mm 3 mps 718 mmHg 62%
    15:00 +25°C° 0.5 mm 3 mps 718 mmHg 67%
    16:00 +23°C° 0.5 mm 4 mps 718 mmHg 71%
    17:00 +22°C° 0.2 mm 3 mps 719 mmHg 75%
    18:00 +21°C° 0.2 mm 2 mps 719 mmHg 79%
    19:00 +20°C° 0.2 mm 2 mps 719 mmHg 83%
    20:00 +19°C° 0 mm 2 mps 719 mmHg 85%
    21:00 +19°C° 0 mm 1 mps 719 mmHg 87%
    22:00 +18°C° 0 mm 1 mps 719 mmHg 89%
    23:00 +18°C° 0 mm 1 mps 719 mmHg 90%

    24 July, Tuesday

    Time Temperature Precipitation Wind Pressure Humidity
    00:00 +18°C° 0 mm 1 mps 719 mmHg 90%
    01:00 +16°C° 0 mm 1 mps 719 mmHg 91%
    02:00 +16°C° 0 mm 1 mps 719 mmHg 91%
    03:00 +16°C° 0 mm 1 mps 719 mmHg 91%
    04:00 +15°C° 0 mm 1 mps 719 mmHg 91%
    05:00 +18°C° 0 mm 1 mps 719 mmHg 87%
    06:00 +19°C° 0 mm 1 mps 719 mmHg 83%
    07:00 +20°C° 0 mm 1 mps 720 mmHg 79%
    08:00 +21°C° 0.1 mm 2 mps 720 mmHg 73%
    09:00 +23°C° 0.1 mm 2 mps 720 mmHg 66%
    10:00 +25°C° 0.1 mm 2 mps 720 mmHg 59%
    11:00 +25°C° 0.2 mm 2 mps 719 mmHg 58%
    12:00 +25°C° 0.2 mm 2 mps 719 mmHg 58%
    13:00 +26°C° 0.2 mm 3 mps 719 mmHg 58%
    14:00 +26°C° 0.4 mm 3 mps 719 mmHg 59%
    15:00 +26°C° 0.4 mm 2 mps 719 mmHg 60%
    16:00 +26°C° 0.4 mm 2 mps 719 mmHg 62%
    17:00 +24°C° 0.2 mm 2 mps 719 mmHg 68%
    18:00 +23°C° 0.2 mm 2 mps 718 mmHg 74%
    19:00 +21°C° 0.2 mm 1 mps 718 mmHg 80%
    20:00 +20°C° 0 mm 1 mps 718 mmHg 83%
    21:00 +19°C° 0 mm 1 mps 719 mmHg 85%
    22:00 +16°C° 0 mm 0 mps 719 mmHg 88%
    23:00 +16°C° 0 mm 0 mps 719 mmHg 89%

    25 July, Wednesday

    Time Temperature Precipitation Wind Pressure Humidity
    00:00 +15°C° 0 mm 0 mps 718 mmHg 89%
    01:00 +15°C° 0 mm 0 mps 718 mmHg 90%
    02:00 +15°C° 0 mm 0 mps 719 mmHg 91%
    03:00 +15°C° 0 mm 0 mps 719 mmHg 91%
    04:00 +14°C° 0 mm 0 mps 719 mmHg 92%
    05:00 +18°C° 0 mm 1 mps 719 mmHg 88%
    06:00 +19°C° 0 mm 1 mps 719 mmHg 84%
    07:00 +21°C° 0 mm 1 mps 720 mmHg 81%
    08:00 +22°C° 0.2 mm 1 mps 720 mmHg 76%
    09:00 +23°C° 0.2 mm 1 mps 720 mmHg 71%
    10:00 +24°C° 0.2 mm 2 mps 720 mmHg 66%
    11:00 +25°C° 0.3 mm 2 mps 720 mmHg 63%
    12:00 +26°C° 0.3 mm 2 mps 719 mmHg 60%
    13:00 +26°C° 0.3 mm 2 mps 719 mmHg 58%
    14:00 +26°C° 0.2 mm 2 mps 719 mmHg 58%
    15:00 +26°C° 0.2 mm 2 mps 719 mmHg 58%
    16:00 +26°C° 0.2 mm 2 mps 719 mmHg 58%
    17:00 +25°C° 0 mm 1 mps 719 mmHg 62%
    18:00 +23°C° 0 mm 1 mps 719 mmHg 67%
    19:00 +22°C° 0 mm 1 mps 719 mmHg 71%
    20:00 +21°C° 0 mm 1 mps 719 mmHg 75%
    21:00 +20°C° 0 mm 1 mps 720 mmHg 78%
    22:00 +19°C° 0 mm 1 mps 720 mmHg 82%
    23:00 +18°C° 0 mm 1 mps 720 mmHg 84%
    Show more